When you browse on this site, cookies collect data to enhance your experience and personalize the content and advertising you see.
Visit our Privacy Policy to learn more. By continuing to use the site, you agree to this use of cookies and data.
  • In Hungary
  • List of Countries
  • For 7 days
  • Water Temperature
  • Weather Map
  • News
  • Weather Widgets
  • user-avatar
    Login

    Hourly Weather Izvalino

    Today, 22 January, Wednesday

    Time Temperature Precipitation Wind Pressure Humidity
    00:00 -3°C° 0 mm 6 mps 735 mmHg 78%
    01:00 -2°C° 0 mm 5 mps 735 mmHg 79%
    02:00 -2°C° 0 mm 5 mps 735 mmHg 80%
    03:00 -2°C° 0 mm 5 mps 735 mmHg 80%
    04:00 -4°C° 0 mm 5 mps 734 mmHg 80%
    05:00 -4°C° 0 mm 5 mps 733 mmHg 80%
    06:00 -4°C° 0 mm 5 mps 733 mmHg 83%
    07:00 -4°C° 0 mm 5 mps 732 mmHg 85%
    08:00 -4°C° 0 mm 5 mps 732 mmHg 88%
    09:00 -2°C° 0.3 mm 5 mps 731 mmHg 90%
    10:00 -3°C° 0.3 mm 6 mps 731 mmHg 92%
    11:00 -3°C° 0.3 mm 6 mps 730 mmHg 94%
    12:00 -3°C° 0.3 mm 6 mps 730 mmHg 88%
    13:00 -3°C° 0.3 mm 6 mps 730 mmHg 82%
    14:00 -1°C° 0.3 mm 5 mps 730 mmHg 76%
    15:00 -2°C° 0 mm 5 mps 730 mmHg 77%
    16:00 -4°C° 0 mm 5 mps 731 mmHg 78%
    17:00 -5°C° 0 mm 5 mps 731 mmHg 79%
    18:00 -5°C° 0 mm 5 mps 732 mmHg 79%
    19:00 -5°C° 0 mm 5 mps 732 mmHg 80%
    20:00 -5°C° 0 mm 5 mps 733 mmHg 80%
    21:00 -5°C° 0 mm 5 mps 733 mmHg 81%
    22:00 -5°C° 0 mm 6 mps 733 mmHg 82%
    23:00 -6°C° 0 mm 6 mps 734 mmHg 83%

    Tomorrow, 23 January, Thursday

    Time Temperature Precipitation Wind Pressure Humidity
    00:00 -6°C° 0 mm 6 mps 734 mmHg 81%
    01:00 -6°C° 0 mm 6 mps 735 mmHg 80%
    02:00 -8°C° 0 mm 7 mps 736 mmHg 78%
    03:00 -8°C° 0 mm 6 mps 736 mmHg 77%
    04:00 -8°C° 0 mm 6 mps 737 mmHg 77%
    05:00 -9°C° 0 mm 6 mps 737 mmHg 76%
    06:00 -9°C° 0 mm 6 mps 738 mmHg 72%
    07:00 -9°C° 0 mm 6 mps 739 mmHg 69%
    08:00 -9°C° 0 mm 6 mps 740 mmHg 65%
    09:00 -9°C° 0 mm 6 mps 740 mmHg 64%
    10:00 -8°C° 0 mm 6 mps 740 mmHg 63%
    11:00 -8°C° 0 mm 6 mps 741 mmHg 62%
    12:00 -8°C° 0 mm 6 mps 741 mmHg 62%
    13:00 -6°C° 0 mm 6 mps 741 mmHg 61%
    14:00 -6°C° 0 mm 6 mps 741 mmHg 60%
    15:00 -6°C° 0 mm 6 mps 741 mmHg 64%
    16:00 -6°C° 0 mm 5 mps 741 mmHg 68%
    17:00 -6°C° 0 mm 5 mps 741 mmHg 71%
    18:00 -5°C° 0 mm 4 mps 742 mmHg 73%
    19:00 -5°C° 0 mm 4 mps 742 mmHg 75%
    20:00 -6°C° 0 mm 3 mps 742 mmHg 77%
    21:00 -6°C° 0 mm 3 mps 743 mmHg 79%
    22:00 -6°C° 0 mm 3 mps 743 mmHg 80%
    23:00 -5°C° 0 mm 2 mps 743 mmHg 81%

    Day after tomorrow, 24 January, Friday

    Time Temperature Precipitation Wind Pressure Humidity
    00:00 -6°C° 0 mm 3 mps 742 mmHg 81%
    01:00 -6°C° 0 mm 3 mps 742 mmHg 81%
    02:00 -5°C° 0 mm 3 mps 742 mmHg 80%
    03:00 -5°C° 0.1 mm 3 mps 741 mmHg 83%
    04:00 -5°C° 0.1 mm 4 mps 740 mmHg 86%
    05:00 -4°C° 0.1 mm 4 mps 739 mmHg 90%
    06:00 -4°C° 0.1 mm 4 mps 739 mmHg 91%
    07:00 -5°C° 0.1 mm 5 mps 738 mmHg 93%
    08:00 -5°C° 0.1 mm 5 mps 738 mmHg 95%
    09:00 -4°C° 0.2 mm 5 mps 737 mmHg 93%
    10:00 -4°C° 0.2 mm 5 mps 736 mmHg 90%
    11:00 -2°C° 0.2 mm 5 mps 736 mmHg 88%
    12:00 -1°C° 0 mm 5 mps 735 mmHg 91%
    13:00 -1°C° 0 mm 4 mps 735 mmHg 93%
    14:00 0°C° 0 mm 4 mps 734 mmHg 96%
    15:00 +1°C° 0.2 mm 4 mps 734 mmHg 94%
    16:00 +1°C° 0.2 mm 5 mps 734 mmHg 93%
    17:00 +1°C° 0.2 mm 5 mps 734 mmHg 92%
    18:00 +1°C° 0.1 mm 5 mps 734 mmHg 93%
    19:00 +1°C° 0.1 mm 5 mps 734 mmHg 94%
    20:00 +1°C° 0.1 mm 4 mps 735 mmHg 96%
    21:00 0°C° 0.1 mm 4 mps 735 mmHg 96%
    22:00 0°C° 0.1 mm 4 mps 734 mmHg 96%
    23:00 +1°C° 0.1 mm 3 mps 734 mmHg 97%

    25 January, Saturday

    Time Temperature Precipitation Wind Pressure Humidity
    00:00 +1°C° 0.1 mm 3 mps 734 mmHg 96%
    01:00 +1°C° 0.1 mm 3 mps 734 mmHg 96%
    02:00 +1°C° 0.1 mm 2 mps 734 mmHg 96%
    03:00 +1°C° 0.2 mm 3 mps 733 mmHg 96%
    04:00 +1°C° 0.2 mm 3 mps 733 mmHg 97%
    05:00 +1°C° 0.2 mm 3 mps 732 mmHg 97%
    06:00 +1°C° 0.1 mm 3 mps 732 mmHg 95%
    07:00 +1°C° 0.1 mm 3 mps 732 mmHg 94%
    08:00 0°C° 0.1 mm 4 mps 732 mmHg 92%
    09:00 0°C° 0.1 mm 4 mps 732 mmHg 89%
    10:00 0°C° 0.1 mm 4 mps 732 mmHg 86%
    11:00 0°C° 0.1 mm 5 mps 732 mmHg 82%
    12:00 0°C° 0 mm 5 mps 732 mmHg 79%
    13:00 0°C° 0 mm 5 mps 732 mmHg 76%
    14:00 0°C° 0 mm 5 mps 732 mmHg 73%
    15:00 -2°C° 0 mm 6 mps 732 mmHg 75%
    16:00 -2°C° 0 mm 7 mps 731 mmHg 77%
    17:00 -2°C° 0 mm 7 mps 731 mmHg 80%
    18:00 -3°C° 0.2 mm 7 mps 732 mmHg 77%
    19:00 -3°C° 0.2 mm 7 mps 732 mmHg 73%
    20:00 -4°C° 0.2 mm 6 mps 733 mmHg 70%
    21:00 -4°C° 0 mm 6 mps 734 mmHg 71%
    22:00 -5°C° 0 mm 6 mps 735 mmHg 72%
    23:00 -5°C° 0 mm 6 mps 735 mmHg 72%

    26 January, Sunday

    Time Temperature Precipitation Wind Pressure Humidity
    00:00 -5°C° 0 mm 6 mps 736 mmHg 73%
    01:00 -5°C° 0 mm 6 mps 737 mmHg 74%
    02:00 -5°C° 0 mm 6 mps 738 mmHg 74%
    03:00 -6°C° 0 mm 6 mps 738 mmHg 75%
    04:00 -6°C° 0 mm 6 mps 739 mmHg 75%
    05:00 -6°C° 0 mm 5 mps 740 mmHg 75%
    06:00 -6°C° 0 mm 5 mps 740 mmHg 77%
    07:00 -6°C° 0 mm 5 mps 741 mmHg 78%
    08:00 -5°C° 0 mm 4 mps 742 mmHg 80%
    09:00 -5°C° 0 mm 5 mps 742 mmHg 78%
    10:00 -5°C° 0 mm 5 mps 743 mmHg 77%
    11:00 -5°C° 0 mm 5 mps 744 mmHg 75%
    12:00 -3°C° 0 mm 4 mps 744 mmHg 75%
    13:00 -2°C° 0 mm 3 mps 745 mmHg 74%
    14:00 -2°C° 0 mm 3 mps 745 mmHg 74%
    15:00 -2°C° 0 mm 2 mps 745 mmHg 77%
    16:00 -3°C° 0 mm 2 mps 746 mmHg 80%
    17:00 -3°C° 0 mm 2 mps 746 mmHg 84%
    18:00 -3°C° 0 mm 2 mps 746 mmHg 84%
    19:00 -3°C° 0 mm 2 mps 746 mmHg 85%
    20:00 -3°C° 0 mm 2 mps 746 mmHg 85%
    21:00 -3°C° 0 mm 2 mps 746 mmHg 84%
    22:00 -4°C° 0 mm 3 mps 746 mmHg 83%
    23:00 -4°C° 0 mm 3 mps 746 mmHg 82%

    27 January, Monday

    Time Temperature Precipitation Wind Pressure Humidity
    00:00 -4°C° 0 mm 3 mps 746 mmHg 84%
    01:00 -2°C° 0 mm 3 mps 746 mmHg 86%
    02:00 -2°C° 0 mm 3 mps 745 mmHg 89%
    03:00 -3°C° 0 mm 4 mps 745 mmHg 90%
    04:00 -3°C° 0 mm 4 mps 745 mmHg 91%
    05:00 -2°C° 0 mm 4 mps 744 mmHg 92%
    06:00 -2°C° 0.1 mm 4 mps 744 mmHg 93%
    07:00 -2°C° 0.1 mm 4 mps 744 mmHg 93%
    08:00 -2°C° 0.1 mm 5 mps 744 mmHg 94%
    09:00 -2°C° 0.1 mm 5 mps 744 mmHg 92%
    10:00 -2°C° 0.1 mm 5 mps 743 mmHg 90%
    11:00 -2°C° 0.1 mm 5 mps 743 mmHg 87%
    12:00 -2°C° 0 mm 5 mps 743 mmHg 88%
    13:00 -2°C° 0 mm 5 mps 742 mmHg 88%
    14:00 -2°C° 0 mm 5 mps 742 mmHg 89%
    15:00 -2°C° 0 mm 5 mps 742 mmHg 88%
    16:00 -2°C° 0 mm 5 mps 741 mmHg 87%
    17:00 -2°C° 0 mm 5 mps 741 mmHg 86%
    18:00 -2°C° 0 mm 5 mps 741 mmHg 87%
    19:00 -1°C° 0 mm 5 mps 741 mmHg 88%
    20:00 -1°C° 0 mm 5 mps 740 mmHg 89%
    21:00 -1°C° 0 mm 5 mps 740 mmHg 90%
    22:00 -1°C° 0 mm 5 mps 740 mmHg 91%
    23:00 -1°C° 0 mm 5 mps 740 mmHg 92%
    Show more